Location: Elaina
(34.1445°N, 106.7742°W)
Time: 21:53:10
(UTC+00:00)

Daily predictions for brighter satellites

Satellite Brightness Start Highest point End
(mag) Time Altitude Azimuth Time Altitude Azimuth Time Altitude Azimuth
OAO 2 Rocket 3.6 12:05:30 47° SW 12:06:48 66° SSE 12:11:55 10° E
Cosmos 2369 3.6 12:08:44 51° WNW 12:09:49 61° WSW 12:15:22 10° S
NOSS 3-1 (C) 4.3 12:04:55 22° NNW 12:10:27 76° ENE 12:19:46 10° SE
FengYun 1-2 T 4.3 12:09:38 10° N 12:15:10 56° WNW 12:20:39 10° SSW
SL-24 R/B 4.2 12:10:17 10° NNE 12:15:16 83° ESE 12:19:35 10° S
Cosmos 1898 Rocket 3.4 12:14:12 47° NW 12:15:26 61° WSW 12:20:37 10° S
Cosmos 1726 Rocket 3.3 12:21:17 38° NNW 12:22:48 73° W 12:26:54 10° S
Helios 1A Rocket 4.2 12:20:31 10° SE 12:23:28 30° ENE 12:26:26 10° N
IRS-1D 3.4 12:19:38 10° N 12:24:38 65° WNW 12:29:43 10° SSW
[s.n.66875] 4.2 12:23:29 12° S 12:24:44 16° SE 12:26:25 10° E
[s.n.66873] 4.2 12:24:08 12° S 12:25:26 16° SE 12:27:08 10° E
[s.n.66876] 4.2 12:24:36 12° S 12:25:54 16° SE 12:27:38 10° E
OAO 3 Copernicus 4.2 12:24:51 42° W 12:26:34 83° N 12:31:35 10° E
[s.n.66874] 4.2 12:25:21 12° S 12:26:42 17° SE 12:28:27 10° E
[s.n.66872] 4.2 12:26:07 12° S 12:27:30 17° SE 12:29:16 10° E
[s.n.66871] 4.2 12:26:38 12° S 12:28:02 17° SE 12:29:50 10° E
Cosmos 1627 Rocket 4.3 12:22:40 10° SSW 12:28:45 73° W 12:34:52 10° N
[s.n.66870] 4.2 12:27:25 12° S 12:28:52 17° SE 12:30:41 10° E
Tiangong -1.8 12:29:06 53° SSW 12:29:07 53° SSW 12:32:15 10° SE
[s.n.66869] 4.2 12:28:09 12° S 12:29:39 18° SE 12:31:30 10° E
Cosmos 2360 Rocket 3.7 12:24:42 10° N 12:29:44 33° ENE 12:34:44 10° SE
[s.n.66868] 4.1 12:28:46 12° S 12:30:16 18° SE 12:32:08 10° E
[s.n.66867] 4.1 12:29:31 12° S 12:31:04 18° SE 12:32:57 10° E
[s.n.66866] 4.1 12:30:13 12° S 12:31:48 19° SE 12:33:43 10° E
[s.n.66865] 4.0 12:30:44 12° S 12:32:21 19° SE 12:34:17 10° E
CZ-4 R/B 3.7 12:28:16 10° N 12:32:48 59° WNW 12:37:20 10° SSW
[s.n.66860] 4.0 12:31:22 12° S 12:33:01 19° SE 12:34:58 10° E
Cosmos 405 Rocket 3.4 12:29:58 10° SSE 12:33:03 44° E 12:36:11 10° NNE
OAO 3 Rocket 3.4 12:30:37 25° SW 12:33:12 62° SSE 12:37:51 10° E
[s.n.66864] 4.0 12:31:59 12° S 12:33:38 20° SE 12:35:36 10° E
COSMO-SKYMED 1 2.9 12:30:00 10° SSE 12:34:01 60° ENE 12:38:05 10° N
[s.n.66863] 4.0 12:32:33 12° S 12:34:14 20° SE 12:36:13 10° E
Cosmos 1626 Rocket 4.4 12:30:00 10° S 12:34:17 53° E 12:38:35 10° NNE
Cosmos 1937 Rocket 3.5 12:31:53 26° NW 12:34:33 55° WSW 12:39:33 10° S
[s.n.66861] 3.9 12:33:20 12° S 12:35:03 20° SE 12:37:04 10° E
[s.n.66862] 3.9 12:33:56 12° SSW 12:35:42 21° SE 12:37:44 10° E
Cosmos 2333 Rocket 2.8 12:30:26 10° NNW 12:36:07 58° ENE 12:41:43 10° SE
[s.n.66859] 3.9 12:34:37 11° SSW 12:36:24 21° SE 12:38:27 10° E
Cosmos 858 Rocket 4.4 12:32:30 16° NNW 12:36:42 79° WSW 12:41:52 10° S
[s.n.66858] 3.9 12:35:15 11° SSW 12:37:05 21° SE 12:39:09 10° E
Cosmos-2242 3.3 12:32:57 10° N 12:37:08 63° E 12:41:15 10° SSE
[s.n.66857] 3.8 12:35:49 11° SSW 12:37:40 22° SE 12:39:44 10° E
[s.n.66856] 3.8 12:36:21 11° SSW 12:38:13 22° SE 12:40:18 10° E
USA 59 Rocket 0.7 12:36:57 33° WNW 12:38:26 45° WSW 12:43:58 10° S
[s.n.66855] 3.8 12:36:59 11° SSW 12:38:54 22° SE 12:41:00 10° E
NOSS 2-1 (D) 4.0 12:37:28 33° WNW 12:39:04 48° WSW 12:44:33 10° SSE
[s.n.66854] 3.8 12:37:33 11° SSW 12:39:29 23° SE 12:41:36 10° E
Cosmos 1892 Rocket 4.1 12:35:58 10° SW 12:39:56 34° W 12:43:56 10° NNW
[s.n.66853] 3.7 12:38:14 11° SSW 12:40:12 23° SE 12:42:20 10° E
[s.n.66852] 3.7 12:38:58 11° SSW 12:40:58 23° SE 12:43:07 10° E
Okean 1 3.7 12:37:31 10° N 12:41:00 55° E 12:44:29 10° SSE
[s.n.66851] 3.7 12:39:28 11° SSW 12:41:29 24° SE 12:43:39 10° E
[s.n.66850] 3.7 12:40:00 11° SSW 12:42:02 24° SE 12:44:13 10° E
[s.n.66849] 3.6 12:40:40 11° SSW 12:42:45 24° SE 12:44:56 10° E
[s.n.66848] 3.6 12:41:10 11° SSW 12:43:17 25° SE 12:45:29 10° E
Cosmos 2219 Rocket 4.1 12:41:33 10° N 12:46:16 26° ENE 12:50:55 10° ESE
PKM 3.8 12:47:23 33° W 12:47:54 37° SW 12:50:36 10° SSE
COSMOS 2455 3.6 12:47:28 22° WNW 12:50:10 32° WSW 12:55:22 10° SSW
Cosmos 2026 Rocket 4.2 12:45:20 10° SSW 12:51:02 43° W 12:56:48 10° N
IGS 5A 3.7 12:48:03 10° NNE 12:52:03 67° E 12:56:00 10° S
NOSS 2-1 (E) 4.2 12:50:25 24° WNW 12:52:43 45° WSW 12:58:08 10° S
Cosmos 2322 Rocket 2.7 12:48:34 10° NNW 12:54:12 62° ENE 12:59:47 10° SSE
Cosmos 1814 Rocket 4.1 12:49:49 10° SSW 12:54:53 53° WNW 13:00:03 10° N
IRIDIUM 104 4.5 12:50:52 10° S 12:56:03 78° E 13:01:17 10° N
ATLAS 2AS CENTAUR R/B 2.8 12:48:58 10° SSW 12:56:07 87° ESE 13:03:05 10° NNE
Centaur AC-119 4.0 12:53:06 10° WSW 12:57:45 35° S 13:02:11 10° ESE
Meteor 2-2 Rocket 4.2 12:52:35 10° NNW 12:58:19 76° W 13:04:08 10° S
IRIDIUM 114 4.3 12:59:58 10° S 13:05:11 84° W 13:10:25 10° N
CBERS-1 4.0 13:05:26 10° NNE 13:10:32 86° WNW 13:15:36 10° SSW
Cosmos 1602 Rocket 3.8 13:08:42 10° S 13:13:06 78° E 13:17:33 10° N
IRIDIUM 103 4.3 13:09:10 10° S 13:14:20 68° W 13:19:33 10° N
SMAP 3.6 13:10:25 10° NNE 13:15:02 64° E 13:19:38 10° S
Cosmos 158 Rocket 4.5 13:13:27 10° SW 13:18:24 38° WNW 13:23:18 10° N
NOSS 3-1 (A) 4.3 13:11:39 10° NNW 13:19:30 86° WSW 13:28:54 10° SSE
SL-16 R/B 2.8 13:17:40 10° NW 13:22:51 38° WSW 13:28:01 10° S
Cosmos 44 3.7 13:19:32 10° SSW 13:23:54 63° ESE 13:28:33 10° NE
Cosmos 2058 Rocket 3.9 13:20:44 10° NNW 13:24:33 29° W 13:28:20 10° SSW
Cosmos 1553 Rocket 4.1 13:19:00 10° NNW 13:25:22 69° W 13:31:42 10° S
CZ-3 R/B 4.0 13:17:02 10° W 13:27:03 19° SW 13:32:16 10° S
Cosmos 2151 2.8 13:25:18 10° SSW 13:29:20 68° W 13:33:24 10° N
Thor Agena Rocket 3.4 13:27:30 10° N 13:32:32 78° WNW 13:37:32 10° SSW
Cosmos 1743 2.9 13:30:11 10° SSW 13:33:08 33° W 13:36:07 10° NNW
